TimeCST,TemperatureF,Dew PointF,Humidity,Sea Level PressureIn,VisibilityMPH,Wind Direction,Wind SpeedMPH,Gust SpeedMPH,PrecipitationIn,Events,Conditions,WindDirDegrees,DateUTC
12:51 AM,46.0,39.9,79,30.24,10.0,South,4.6,-,N/A,,Clear,170,2013-12-25 06:51:00
1:51 AM,45.0,39.9,82,30.22,10.0,SSE,5.8,-,N/A,,Partly Cloudy,160,2013-12-25 07:51:00
2:51 AM,44.1,39.9,85,30.22,10.0,Calm,Calm,-,N/A,,Partly Cloudy,0,2013-12-25 08:51:00
3:51 AM,42.1,39.0,89,30.21,10.0,NNW,3.5,-,N/A,,Partly Cloudy,340,2013-12-25 09:51:00
4:51 AM,41.0,37.0,86,30.21,10.0,NNW,3.5,-,N/A,,Clear,330,2013-12-25 10:51:00
5:51 AM,39.9,37.0,89,30.21,10.0,Calm,Calm,-,N/A,,Mostly Cloudy,0,2013-12-25 11:51:00
6:51 AM,39.9,37.0,89,30.23,10.0,WNW,4.6,-,N/A,,Scattered Clouds,300,2013-12-25 12:51:00
7:51 AM,39.9,37.0,89,30.25,10.0,NNW,3.5,-,N/A,,Scattered Clouds,330,2013-12-25 13:51:00
8:34 AM,46.4,42.8,87,30.28,10.0,Calm,Calm,-,N/A,,Mostly Cloudy,0,2013-12-25 14:34:00
8:51 AM,46.9,42.1,83,30.27,10.0,Calm,Calm,-,N/A,,Mostly Cloudy,0,2013-12-25 14:51:00
9:42 AM,50.0,42.8,76,30.31,10.0,NE,3.5,-,N/A,,Mostly Cloudy,50,2013-12-25 15:42:00
9:51 AM,51.1,43.0,74,30.29,10.0,NE,4.6,-,N/A,,Mostly Cloudy,40,2013-12-25 15:51:00
10:51 AM,55.0,45.0,69,30.30,10.0,ENE,4.6,-,N/A,,Mostly Cloudy,60,2013-12-25 16:51:00
11:19 AM,55.4,44.6,67,30.32,10.0,NE,3.5,-,N/A,,Mostly Cloudy,40,2013-12-25 17:19:00
11:51 AM,57.9,46.0,65,30.29,10.0,North,3.5,-,N/A,,Overcast,360,2013-12-25 17:51:00
12:51 PM,59.0,46.9,64,30.27,10.0,Calm,Calm,-,N/A,,Overcast,0,2013-12-25 18:51:00
1:08 PM,59.0,46.4,63,30.29,10.0,Calm,Calm,-,N/A,,Overcast,0,2013-12-25 19:08:00
1:51 PM,60.1,48.0,64,30.24,10.0,Variable,3.5,-,N/A,,Overcast,0,2013-12-25 19:51:00
2:51 PM,60.1,48.0,64,30.23,10.0,East,5.8,-,N/A,,Overcast,80,2013-12-25 20:51:00
3:51 PM,59.0,48.0,67,30.24,10.0,ENE,8.1,-,N/A,,Overcast,70,2013-12-25 21:51:00
4:51 PM,57.9,46.9,67,30.26,10.0,ENE,6.9,-,N/A,,Overcast,70,2013-12-25 22:51:00
5:51 PM,57.0,46.9,69,30.27,10.0,East,4.6,-,N/A,,Overcast,80,2013-12-25 23:51:00
6:51 PM,55.9,46.0,69,30.28,10.0,ENE,6.9,-,N/A,,Overcast,70,2013-12-26 00:51:00
7:51 PM,55.0,46.0,72,30.30,10.0,NNE,5.8,-,N/A,,Overcast,30,2013-12-26 01:51:00
8:02 PM,53.6,46.4,77,30.33,10.0,NNE,6.9,-,N/A,,Overcast,30,2013-12-26 02:02:00
8:51 PM,55.0,46.9,74,30.32,10.0,Calm,Calm,-,N/A,,Overcast,0,2013-12-26 02:51:00
9:47 PM,53.6,46.4,77,30.36,10.0,Calm,Calm,-,N/A,,Overcast,0,2013-12-26 03:47:00
9:51 PM,55.0,46.9,74,30.34,10.0,Calm,Calm,-,N/A,,Overcast,0,2013-12-26 03:51:00
10:27 PM,55.4,46.4,72,30.37,10.0,North,10.4,-,N/A,,Overcast,10,2013-12-26 04:27:00
10:51 PM,55.0,41.0,59,30.35,10.0,North,13.8,19.6,N/A,,Overcast,360,2013-12-26 04:51:00
11:51 PM,54.0,39.0,57,30.35,10.0,North,9.2,19.6,N/A,,Overcast,10,2013-12-26 05:51:00